GW4198 Weather Reports


Display with metric or nautical units.
time (UTC)temp
F
wind
direction
speed
MPH
gust
MPH
rain 1hr
in
rain 24hr
in
rain mn
in
humidity
%
barometer
mb
20260906152407 92 273 1.0 1.0 0.00 0.00 0.00 57 1015.0
20260906151906 91 56 0.0 0.0 0.00 0.00 0.00 59 1014.7
20260906151402 91 51 0.0 0.0 0.00 0.00 0.00 60 1014.8
20260906150857 90 356 0.0 0.0 0.00 0.00 0.00 61 1014.9
20260906150352 90 53 0.0 0.0 0.00 0.00 0.00 62 1014.8
20260906145851 90 60 0.0 0.0 0.00 0.00 0.00 62 1014.9
20260906145350 89 71 0.0 0.0 0.00 0.00 0.00 64 1014.9
20260906144845 87 57 0.0 0.0 0.00 0.00 0.00 66 1014.8
20260906144340 86 295 0.0 0.0 0.00 0.00 0.00 69 1014.9
20260906143835 85 84 0.0 0.0 0.00 0.00 0.00 70 1014.9
20260906143331 85 61 0.0 0.0 0.00 0.00 0.00 71 1015.0
20260906142826 84 62 0.0 0.0 0.00 0.00 0.00 71 1015.0
20260906142321 83 72 0.0 0.0 0.00 0.00 0.00 73 1015.0
20260906141820 83 67 0.0 0.0 0.00 0.00 0.00 75 1015.1
20260906141315 83 38 0.0 0.0 0.00 0.00 0.00 75 1015.0
20260906140813 82 77 0.0 0.0 0.00 0.00 0.00 75 1015.2
20260906140309 81 82 0.0 0.0 0.00 0.00 0.00 77 1015.0
20260906135807 81 83 0.0 0.0 0.00 0.00 0.00 79 1015.1
20260906135305 80 83 0.0 0.0 0.00 0.00 0.00 77 1014.9
20260906134757 80 84 0.0 0.0 0.00 0.00 0.00 80 1014.9
20260906134252 79 85 0.0 0.0 0.00 0.00 0.00 80 1014.9
20260906133748 78 82 0.0 0.0 0.00 0.00 0.00 81 1014.9
20260906133243 78 82 0.0 0.0 0.00 0.00 0.00 81 1014.9
20260906132738 77 112 0.0 0.0 0.00 0.00 0.00 83 1014.9
20260906132228 77 82 0.0 0.0 0.00 0.00 0.00 85 1014.9
20260906131724 76 86 0.0 0.0 0.00 0.00 0.00 87 1014.8
20260906131219 75 86 0.0 0.0 0.00 0.00 0.00 88 1014.8
20260906130714 75 91 0.0 0.0 0.00 0.00 0.00 89 1014.8
20260906130209 74 92 0.0 0.0 0.00 0.00 0.00 89 1014.6
20260906125708 74 92 0.0 0.0 0.00 0.00 0.00 90 1014.5
20260906125206 74 92 0.0 0.0 0.00 0.00 0.00 90 1014.5
20260906124701 74 92 0.0 0.0 0.00 0.00 0.00 90 1014.5
20260906124157 73 93 0.0 0.0 0.00 0.00 0.00 90 1014.5
20260906123655 73 93 0.0 0.0 0.00 0.00 0.00 90 1014.3
20260906123151 73 92 0.0 0.0 0.00 0.00 0.00 91 1014.4
20260906122650 73 95 0.0 0.0 0.00 0.00 0.00 91 1014.3
20260906122146 73 96 0.0 0.0 0.00 0.00 0.00 92 1014.5
20260906121642 72 85 0.0 0.0 0.00 0.00 0.00 92 1014.4
20260906121138 72 93 0.0 0.0 0.00 0.00 0.00 92 1014.3
20260906120633 72 94 0.0 0.0 0.00 0.00 0.00 92 1014.3
20260906120130 72 93 0.0 0.0 0.00 0.00 0.00 92 1014.1
20260906115625 72 91 0.0 0.0 0.00 0.00 0.00 92 1014.1
20260906115120 72 99 0.0 0.0 0.00 0.00 0.00 92 1014.2
20260906114619 72 94 0.0 0.0 0.00 0.00 0.00 92 1013.8
20260906114115 72 101 0.0 0.0 0.00 0.00 0.00 92 1013.8
20260906113615 72 80 0.0 0.0 0.00 0.00 0.00 91 1013.9
20260906113109 72 76 0.0 0.0 0.00 0.00 0.00 91 1014.1
20260906112609 72 76 0.0 0.0 0.00 0.00 0.00 91 1014.1
20260906112106 73 79 0.0 0.0 0.00 0.00 0.00 91 1014.1
20260906111605 73 93 0.0 0.0 0.00 0.00 0.00 90 1014.0
20260906111100 73 96 0.0 0.0 0.00 0.00 0.00 90 1013.8
20260906110600 73 109 0.0 0.0 0.00 0.00 0.00 90 1013.9
20260906110059 73 84 0.0 0.0 0.00 0.00 0.00 90 1013.7
20260906105554 73 92 0.0 0.0 0.00 0.00 0.00 89 1013.7
20260906105050 73 93 0.0 0.0 0.00 0.00 0.00 89 1013.8
20260906104549 73 77 0.0 0.0 0.00 0.00 0.00 89 1013.8
20260906104043 74 60 0.0 0.0 0.00 0.00 0.00 88 1013.5
20260906103541 74 43 0.0 0.0 0.00 0.00 0.00 88 1013.8
20260906103037 74 77 0.0 0.0 0.00 0.00 0.00 88 1013.5
20260906102537 74 111 0.0 0.0 0.00 0.00 0.00 87 1013.4
20260906102032 74 113 0.0 0.0 0.00 0.00 0.00 87 1013.4
20260906101526 74 117 0.0 0.0 0.00 0.00 0.00 88 1013.4
20260906101021 74 115 0.0 0.0 0.00 0.00 0.00 87 1013.4
20260906100517 74 118 0.0 0.0 0.00 0.00 0.00 87 1013.5
20260906100012 74 117 0.0 0.0 0.00 0.00 0.00 87 1013.2
20260906095507 74 106 0.0 0.0 0.00 0.00 0.00 88 1013.4
20260906095002 74 104 0.0 0.0 0.00 0.00 0.00 88 1013.3
20260906094500 73 102 0.0 0.0 0.00 0.00 0.00 89 1013.3
20260906093957 73 102 0.0 0.0 0.00 0.00 0.00 89 1013.3
20260906093453 73 86 0.0 0.0 0.00 0.00 0.00 89 1013.3
20260906092948 74 100 0.0 0.0 0.00 0.00 0.00 88 1013.4
20260906092448 74 93 0.0 0.0 0.00 0.00 0.00 88 1013.3
20260906091943 74 96 0.0 0.0 0.00 0.00 0.00 88 1013.3
20260906091439 74 96 0.0 0.0 0.00 0.00 0.00 88 1013.1
20260906090935 74 91 0.0 0.0 0.00 0.00 0.00 88 1013.1
20260906090430 74 90 0.0 0.0 0.00 0.00 0.00 88 1013.2
20260906085929 74 90 0.0 0.0 0.00 0.00 0.00 88 1013.1
20260906085429 74 90 0.0 0.0 0.00 0.00 0.00 87 1013.2
20260906084928 74 90 0.0 0.0 0.00 0.00 0.00 87 1012.9
20260906084423 74 90 0.0 0.0 0.00 0.00 0.00 87 1013.1
20260906083922 74 102 0.0 0.0 0.00 0.00 0.00 86 1012.9
20260906083418 74 103 0.0 0.0 0.00 0.00 0.00 85 1012.8
20260906082917 75 103 0.0 0.0 0.00 0.00 0.00 85 1012.9
20260906082413 75 103 0.0 0.0 0.00 0.00 0.00 85 1012.7
20260906081908 75 103 0.0 0.0 0.00 0.00 0.00 85 1012.7
20260906081403 75 103 0.0 0.0 0.00 0.00 0.00 84 1013.0
20260906080900 75 103 0.0 0.0 0.00 0.00 0.00 84 1012.8
20260906080356 75 108 0.0 0.0 0.00 0.00 0.00 84 1012.8
20260906075855 75 107 0.0 0.0 0.00 0.00 0.00 83 1013.0
20260906075350 76 107 0.0 0.0 0.00 0.00 0.00 83 1013.0
20260906074845 76 107 0.0 0.0 0.00 0.00 0.00 82 1012.8
20260906074340 76 103 0.0 0.0 0.00 0.00 0.00 82 1013.0
20260906073839 76 103 0.0 0.0 0.00 0.00 0.00 82 1013.1
20260906073334 76 103 0.0 0.0 0.00 0.00 0.00 83 1013.0
20260906072831 76 103 0.0 0.0 0.00 0.00 0.00 83 1013.2
20260906072326 76 103 0.0 0.0 0.00 0.00 0.00 82 1013.2
20260906071822 76 103 0.0 0.0 0.00 0.00 0.00 83 1013.1
20260906071321 76 103 0.0 0.0 0.00 0.00 0.00 82 1013.2
20260906070818 76 103 0.0 0.0 0.00 0.00 0.00 81 1013.3
20260906070313 76 103 0.0 0.0 0.00 0.00 0.00 81 1013.4
20260906065808 77 103 0.0 0.0 0.00 0.00 0.00 80 1013.4
20260906065305 77 103 0.0 0.0 0.00 0.00 0.00 80 1013.2
20260906064759 77 103 0.0 0.0 0.00 0.00 0.00 80 1013.3
20260906064254 77 103 0.0 0.0 0.00 0.00 0.00 80 1013.4
20260906063749 77 103 0.0 0.0 0.00 0.00 0.00 79 1013.5
20260906063245 77 103 0.0 0.0 0.00 0.00 0.00 80 1013.5
20260906062740 77 103 0.0 0.0 0.00 0.00 0.00 80 1013.5
20260906062239 77 103 0.0 0.0 0.00 0.00 0.00 80 1013.5
20260906061735 77 103 0.0 0.0 0.00 0.00 0.00 80 1013.5
20260906061231 77 95 0.0 0.0 0.00 0.00 0.00 80 1013.4
20260906060726 77 95 0.0 0.0 0.00 0.00 0.00 80 1013.4
20260906060224 77 95 0.0 0.0 0.00 0.00 0.00 79 1013.3
20260906055719 78 108 0.0 0.0 0.00 0.00 0.00 78 1013.3
20260906055214 78 109 0.0 0.0 0.00 0.00 0.00 78 1013.2
20260906054710 78 109 0.0 0.0 0.00 0.00 0.00 78 1013.3
20260906054209 78 110 0.0 0.0 0.00 0.00 0.00 78 1013.4
20260906053707 78 105 0.0 0.0 0.00 0.00 0.00 77 1013.2
20260906053201 78 105 0.0 0.0 0.00 0.00 0.00 76 1013.2
20260906052656 78 104 0.0 0.0 0.00 0.00 0.00 76 1013.2
20260906052153 79 106 0.0 0.0 0.00 0.00 0.00 77 1013.2
20260906051649 79 107 0.0 0.0 0.00 0.00 0.00 75 1013.1
20260906051149 79 107 0.0 0.0 0.00 0.00 0.00 75 1013.1
20260906050644 80 99 0.0 0.0 0.00 0.00 0.00 74 1012.8
20260906050139 80 157 0.0 0.0 0.00 0.00 0.00 74 1012.9
20260906045638 80 119 0.0 0.0 0.00 0.00 0.00 74 1012.7
20260906045133 80 137 0.0 0.0 0.00 0.00 0.00 74 1012.9
20260906044629 80 46 0.0 0.0 0.00 0.00 0.00 73 1012.9
20260906044124 81 76 0.0 0.0 0.00 0.00 0.00 74 1012.6
20260906043620 82 82 0.0 0.0 0.00 0.00 0.00 71 1012.7
20260906043116 82 101 0.0 0.0 0.00 0.00 0.00 68 1012.9
20260906042615 82 101 0.0 0.0 0.00 0.00 0.00 68 1012.9
20260906042109 82 101 0.0 0.0 0.00 0.00 0.00 68 1013.0
20260906041606 81 102 0.0 0.0 0.00 0.00 0.00 70 1012.9
20260906041100 81 86 0.0 0.0 0.00 0.00 0.00 69 1012.8
20260906040556 81 86 0.0 0.0 0.00 0.00 0.00 70 1012.9
20260906040051 81 85 0.0 0.0 0.00 0.00 0.00 70 1012.8
20260906035546 81 85 0.0 0.0 0.00 0.00 0.00 70 1013.0
20260906035042 81 84 0.0 0.0 0.00 0.00 0.00 73 1012.9
20260906034542 81 85 0.0 0.0 0.00 0.00 0.00 73 1013.1
20260906034037 81 88 0.0 0.0 0.00 0.00 0.00 70 1012.8
20260906033532 82 89 0.0 0.0 0.00 0.00 0.00 69 1013.0
20260906033022 82 89 0.0 0.0 0.00 0.00 0.00 69 1013.0
20260906032518 82 89 0.0 0.0 0.00 0.00 0.00 69 1012.8
20260906032012 82 89 0.0 0.0 0.00 0.00 0.00 69 1012.9
20260906031508 82 89 0.0 0.0 0.00 0.00 0.00 69 1013.0
20260906031003 82 88 0.0 0.0 0.00 0.00 0.00 69 1013.0
20260906030458 83 88 0.0 0.0 0.00 0.00 0.00 68 1012.8
20260906025957 83 98 0.0 0.0 0.00 0.00 0.00 67 1012.9
20260906025457 84 103 0.0 0.0 0.00 0.00 0.00 65 1012.8
20260906024955 84 106 0.0 0.0 0.00 0.00 0.00 66 1013.0
20260906024450 84 106 0.0 0.0 0.00 0.00 0.00 65 1012.8
20260906023950 84 137 0.0 0.0 0.00 0.00 0.00 65 1012.8
20260906023447 84 71 0.0 0.0 0.00 0.00 0.00 64 1012.6
20260906022947 84 76 0.0 0.0 0.00 0.00 0.00 63 1012.6
20260906022442 84 105 0.0 0.0 0.00 0.00 0.00 64 1012.7
20260906021937 84 105 0.0 0.0 0.00 0.00 0.00 63 1012.4
20260906021432 85 105 0.0 0.0 0.00 0.00 0.00 63 1012.5
20260906020926 85 110 0.0 0.0 0.00 0.00 0.00 62 1012.3
20260906020421 85 112 0.0 0.0 0.00 0.00 0.00 63 1012.2
20260906015915 85 116 0.0 0.0 0.00 0.00 0.00 62 1012.1
20260906015414 85 104 0.0 0.0 0.00 0.00 0.00 63 1012.1
20260906014909 85 104 0.0 0.0 0.00 0.00 0.00 63 1012.0
20260906014408 85 104 0.0 0.0 0.00 0.00 0.00 61 1011.8
20260906013905 85 103 0.0 0.0 0.00 0.00 0.00 62 1011.8
20260906013400 85 104 0.0 0.0 0.00 0.00 0.00 61 1011.8
20260906012855 85 104 0.0 0.0 0.00 0.00 0.00 61 1011.8
20260906012350 85 94 0.0 0.0 0.00 0.00 0.00 60 1011.6
20260906011850 86 94 0.0 0.0 0.00 0.00 0.00 59 1011.6
20260906011345 86 82 0.0 0.0 0.00 0.00 0.00 58 1011.8
20260906010841 86 104 0.0 0.0 0.00 0.00 0.00 57 1011.6
20260906010336 87 104 0.0 0.0 0.00 0.00 0.00 56 1011.5
20260906005832 87 111 0.0 0.0 0.00 0.00 0.00 55 1011.5
20260906005331 88 105 0.0 0.0 0.00 0.00 0.00 54 1011.4
20260906004830 89 116 0.0 0.0 0.00 0.00 0.00 53 1011.4
20260906004330 89 120 0.0 0.0 0.00 0.00 0.00 52 1011.5
20260906003825 89 116 0.0 0.0 0.00 0.00 0.00 51 1011.7
20260906003320 90 115 0.0 0.0 0.00 0.00 0.00 50 1011.4
20260906002816 90 99 0.0 0.0 0.00 0.00 0.00 49 1011.5
20260906002315 91 97 0.0 0.0 0.00 0.00 0.00 48 1011.4
20260906001811 92 75 0.0 0.0 0.00 0.00 0.00 47 1011.5
20260906001307 92 74 0.0 0.0 0.00 0.00 0.00 47 1011.4
20260906000807 93 63 0.0 0.0 0.00 0.00 0.00 46 1011.6
20260906000303 94 54 0.0 0.0 0.00 0.00 0.00 45 1011.6
20260905235756 95 54 0.0 0.0 0.00 0.00 0.00 46 1011.5
20260905235256 95 54 0.0 0.0 0.00 0.00 0.00 44 1011.7
20260905234751 97 54 0.0 0.0 0.00 0.00 0.00 42 1011.6
20260905234246 98 54 0.0 0.0 0.00 0.00 0.00 40 1011.6
20260905233742 99 53 0.0 0.0 0.00 0.00 0.00 38 1011.4
20260905233241 100 54 0.0 0.0 0.00 0.00 0.00 37 1011.7
20260905232735 100 137 0.0 0.0 0.00 0.00 0.00 35 1011.6
20260905232232 99 110 0.0 0.0 0.00 0.00 0.00 38 1011.6
20260905231727 99 95 0.0 0.0 0.00 0.00 0.00 39 1011.4
20260905231223 99 67 0.0 0.0 0.00 0.00 0.00 38 1011.6
20260905230719 100 55 0.0 0.0 0.00 0.00 0.00 38 1011.4
20260905230217 100 57 0.0 0.0 0.00 0.00 0.00 38 1011.5
20260905225716 101 48 0.0 0.0 0.00 0.00 0.00 38 1011.4
20260905225212 102 71 0.0 1.0 0.00 0.00 0.00 37 1011.5
20260905224711 104 49 0.0 0.0 0.00 0.00 0.00 36 1011.4
20260905224206 104 93 0.0 0.0 0.00 0.00 0.00 35 1011.3
20260905223703 103 101 1.0 1.0 0.00 0.00 0.00 35 1011.6
20260905223159 103 44 0.0 0.0 0.00 0.00 0.00 36 1011.4
20260905222654 104 49 0.0 1.0 0.00 0.00 0.00 36 1011.4
20260905222154 103 39 0.0 0.0 0.00 0.00 0.00 35 1011.4
20260905221649 103 175 1.0 1.0 0.00 0.00 0.00 34 1011.4
20260905221146 104 2 1.0 1.0 0.00 0.00 0.00 36 1011.5
20260905220647 104 162 0.0 1.0 0.00 0.00 0.00 34 1011.3
20260905220143 104 78 0.0 0.0 0.00 0.00 0.00 35 1011.4
20260905215642 104 123 0.0 0.0 0.00 0.00 0.00 35 1011.5
20260905215138 104 349 1.0 1.0 0.00 0.00 0.00 35 1011.4
20260905214634 104 21 1.0 1.0 0.00 0.00 0.00 36 1011.5
20260905214129 103 359 1.0 1.0 0.00 0.00 0.00 36 1011.6
20260905213624 104 17 2.0 3.0 0.00 0.00 0.00 36 1011.6
20260905213120 104 289 0.0 1.0 0.00 0.00 0.00 34 1011.6
20260905212614 104 5 1.0 1.0 0.00 0.00 0.00 35 1011.8
20260905212114 104 299 0.0 0.0 0.00 0.00 0.00 34 1011.9
20260905211609 104 96 0.0 0.0 0.00 0.00 0.00 35 1011.8
20260905211104 104 137 1.0 1.0 0.00 0.00 0.00 35 1012.0
20260905210601 103 120 1.0 2.0 0.00 0.00 0.00 34 1012.1
20260905210055 103 47 1.0 1.0 0.00 0.00 0.00 36 1012.1
20260905205554 103 146 2.0 2.0 0.00 0.00 0.00 36 1012.2
20260905205054 104 236 3.0 4.0 0.00 0.00 0.00 37 1012.2
20260905204549 105 190 2.0 2.0 0.00 0.00 0.00 35 1012.2
20260905204044 104 24 0.0 1.0 0.00 0.00 0.00 35 1012.4
20260905203538 103 131 1.0 1.0 0.00 0.00 0.00 36 1012.6
20260905203034 104 299 0.0 0.0 0.00 0.00 0.00 36 1012.4
20260905202529 102 218 1.0 1.0 0.00 0.00 0.00 38 1012.5
20260905202025 105 66 0.0 0.0 0.00 0.00 0.00 36 1012.7
20260905201520 105 64 0.0 0.0 0.00 0.00 0.00 35 1012.7
20260905201019 105 53 0.0 0.0 0.00 0.00 0.00 36 1013.0
20260905200515 106 22 0.0 0.0 0.00 0.00 0.00 37 1013.0
20260905200014 105 39 0.0 0.0 0.00 0.00 0.00 37 1012.9
20260905195509 103 85 0.0 0.0 0.00 0.00 0.00 37 1013.0
20260905195004 102 32 0.0 0.0 0.00 0.00 0.00 38 1013.1
20260905194504 103 151 2.0 2.0 0.00 0.00 0.00 37 1013.2
20260905194003 102 66 0.0 1.0 0.00 0.00 0.00 39 1013.2
20260905193458 103 235 1.0 1.0 0.00 0.00 0.00 37 1013.4
20260905192953 103 298 1.0 2.0 0.00 0.00 0.00 37 1013.3
20260905192448 103 24 2.0 2.0 0.00 0.00 0.00 38 1013.5
20260905191944 102 299 1.0 1.0 0.00 0.00 0.00 39 1013.5
20260905191438 102 326 4.0 6.0 0.00 0.00 0.00 39 1013.5
20260905190937 101 69 2.0 3.0 0.00 0.00 0.00 39 1013.7
20260905190435 101 213 1.0 2.0 0.00 0.00 0.00 40 1014.0
20260905185934 100 265 1.0 1.0 0.00 0.00 0.00 41 1014.1
20260905185429 99 254 2.0 3.0 0.00 0.00 0.00 42 1014.1
20260905184927 99 224 3.0 3.0 0.00 0.00 0.00 42 1014.2
20260905184422 100 355 2.0 2.0 0.00 0.00 0.00 42 1014.1
20260905183921 101 54 1.0 1.0 0.00 0.00 0.00 43 1014.2
20260905183416 100 50 2.0 2.0 0.00 0.00 0.00 43 1014.4
20260905182911 100 35 0.0 1.0 0.00 0.00 0.00 43 1014.3
20260905182410 101 226 0.0 0.0 0.00 0.00 0.00 41 1014.3
20260905181907 100 281 1.0 2.0 0.00 0.00 0.00 42 1014.4
20260905181406 99 55 1.0 2.0 0.00 0.00 0.00 42 1014.5
20260905180905 100 16 1.0 2.0 0.00 0.00 0.00 43 1014.8
20260905180400 100 39 0.0 0.0 0.00 0.00 0.00 44 1014.6
20260905175855 99 315 0.0 0.0 0.00 0.00 0.00 42 1014.6
20260905175349 98 187 1.0 1.0 0.00 0.00 0.00 43 1014.8
20260905174850 97 44 1.0 1.0 0.00 0.00 0.00 46 1014.8
20260905174345 98 18 1.0 2.0 0.00 0.00 0.00 45 1015.0
20260905173841 99 41 1.0 1.0 0.00 0.00 0.00 46 1014.9
20260905173337 100 314 1.0 2.0 0.00 0.00 0.00 44 1014.8
20260905172832 100 105 1.0 1.0 0.00 0.00 0.00 44 1015.0
20260905172330 100 65 0.0 1.0 0.00 0.00 0.00 44 1015.1
20260905171827 100 199 1.0 2.0 0.00 0.00 0.00 45 1015.1
20260905171323 98 39 1.0 1.0 0.00 0.00 0.00 47 1015.3
20260905170819 98 53 0.0 0.0 0.00 0.00 0.00 45 1015.1
20260905170315 99 30 0.0 0.0 0.00 0.00 0.00 46 1015.4
20260905165814 98 102 1.0 1.0 0.00 0.00 0.00 45 1015.3
20260905165309 97 109 2.0 3.0 0.00 0.00 0.00 46 1015.4
20260905164804 97 25 1.0 1.0 0.00 0.00 0.00 46 1015.6
20260905164304 96 53 1.0 1.0 0.00 0.00 0.00 47 1015.4
20260905163759 96 23 3.0 3.0 0.00 0.00 0.00 47 1015.6
20260905163256 96 19 1.0 1.0 0.00 0.00 0.00 48 1015.4
20260905162751 97 285 1.0 1.0 0.00 0.00 0.00 48 1015.7
20260905162251 96 76 0.0 0.0 0.00 0.00 0.00 49 1015.5
20260905161745 96 98 0.0 0.0 0.00 0.00 0.00 49 1015.5
20260905161244 96 23 1.0 1.0 0.00 0.00 0.00 49 1015.4
20260905160737 95 26 1.0 1.0 0.00 0.00 0.00 51 1015.6
20260905160232 95 48 0.0 0.0 0.00 0.00 0.00 51 1015.4
20260905155732 94 44 0.0 0.0 0.00 0.00 0.00 51 1015.5
20260905155230 94 60 0.0 1.0 0.00 0.00 0.00 54 1015.6
20260905154720 93 45 0.0 0.0 0.00 0.00 0.00 54 1015.4
20260905154215 93 29 1.0 1.0 0.00 0.00 0.00 55 1015.7
20260905153711 93 64 0.0 0.0 0.00 0.00 0.00 56 1015.8
20260905153207 93 32 0.0 1.0 0.00 0.00 0.00 56 1015.6